Flag for U.S.A. Weather past 2 weeks in Juneau, Alaska, U.S.A.

Now
44 °F

Broken clouds.


Feels Like: 40 °F
Forecast: 37 / 54 °F
Wind: 8 mph from East

Location: Juneau International Airport


UV Index: 0 (Low)

Visibility: 10 mi


Pressure: 29.78 "Hg

Humidity: 73%

Dew point: 36 °F

Location of JuneauLocation

Historic Weather in Juneau

°F

Juneau temperature yesterday

Maximum temperature yesterday: 50 °F (at 11:53 AM)
Minimum temperature yesterday: 39 °F (at 12:53 AM)
Average temperature yesterday: 44 °F

Past Weeks' High & Low Weather Summary

 TemperatureHumidityPressure
High52 °F (Apr 15, 3:53 PM)97% (Apr 5, 7:53 AM)30.37 "Hg (Apr 5, 7:53 AM)
Low24 °F (Apr 12, 4:53 AM)34% (Apr 11, 4:53 PM)29.23 "Hg (Apr 7, 12:53 PM)
Average39 °F79%29.80 "Hg
* Reported Apr 3 5:53 PM — Apr 18 5:53 PM, Juneau, Weather by CustomWeather, © 2014

Note: Actual official high and low records may vary slightly from our data, if they occured in-between our weather recording intervals... More about our weather records

Advertising

Historic Weather Conditions — Data for Previous 24 hours

 ConditionsComfort  
Time TempWeatherWind HumidityBarometerVisibility
5:53 PM
Apr 18
45 °FPartly sunny.14 mph71%29.79 "Hg10 mi
4:53 PM46 °FPartly sunny.16 mph71%29.80 "Hg10 mi
3:53 PM45 °FLight rain. Mostly cloudy.16 mph76%29.82 "Hg10 mi
2:53 PM45 °FLight rain. Cloudy.9 mph76%29.82 "Hg10 mi
1:53 PM45 °FLight rain. Mostly cloudy.16 mph76%29.82 "Hg10 mi
12:53 PM44 °FMostly cloudy.14 mph79%29.82 "Hg10 mi
11:53 AM45 °FLight rain. Mostly cloudy.17 mph82%29.81 "Hg8 mi
10:53 AM44 °FMostly cloudy.18 mph82%29.80 "Hg10 mi
9:53 AM42 °FLight rain. Mostly cloudy.16 mph89%29.78 "Hg10 mi
8:53 AM41 °FLight rain. Overcast.7 mph86%29.77 "Hg9 mi
7:53 AM40 °FLight rain. Overcast.14 mph89%29.75 "Hg7 mi
6:53 AM40 °FLight rain. Overcast.15 mph86%29.72 "Hg8 mi
5:53 AM40 °FLight rain. Fog.20 mph86%29.70 "Hg5 mi
4:53 AM39 °FLight rain. Mostly cloudy.21 mph89%29.67 "Hg8 mi
3:53 AM40 °FLight rain. Mostly cloudy.18 mph86%29.65 "Hg9 mi
2:53 AM40 °FLight rain. Mostly cloudy.20 mph86%29.62 "Hg8 mi
1:53 AM40 °FLight rain. Mostly cloudy.22 mph86%29.60 "Hg10 mi
12:53 AM41 °FLight rain. Mostly cloudy.23 mph86%29.58 "Hg10 mi
11:53 PM
Apr 17
42 °FLight rain. Mostly cloudy.18 mph85%29.55 "Hg9 mi
10:53 PM42 °FLight rain. Mostly cloudy.15 mph85%29.54 "Hg9 mi
9:53 PM42 °FLight rain. Mostly cloudy.17 mph85%29.52 "Hg8 mi
8:53 PM44 °FLight rain. Mostly cloudy.12 mph82%29.49 "Hg8 mi
7:53 PM45 °FLight rain. Broken clouds.13 mph82%29.48 "Hg10 mi
Weather by CustomWeather, © 2014

See weather overview